Location: Newark
(27.9675°N, 86.8869°E)
Time: 21:58:52
(UTC+00:00)

deb Explorer IX - Pass Details

Date: 23 October 2019
Orbit: 546 x 1105 km, 38.8° (Epoch: 09 November)

Event Time Altitude Azimuth Distance (km) Brightness Sun altitude
Rises 03:26:07 0° 197° (SSW) 2,715 ? 36.4°
Reaches altitude 10° 03:29:03 10° 174° (S) 1,871 ? 36.9°
Maximum altitude 03:31:38 16° 137° (SE) 1,593 ? 37.3°
Drops below altitude 10° 03:34:22 10° 100° (E) 2,006 ? 37.8°
Sets 03:37:41 0° 78° (ENE) 3,027 ? 38.3°
